This is the latest recevied weather packets stored in our database for station/object DL5ARK. If no packets are shown the sender has not sent any weather packets the latest 10 day(s).
| Time | Temp. | Humidity | Pressure | Rain* | Wind** | Luminosity | Snow |
|---|---|---|---|---|---|---|---|
| 1777710287 | 17.78° C | 52% | 1011.4 hPa | 0 mm | - | - | - |
| 1777710110 | 17.78° C | 50% | 1011.4 hPa | 0 mm | - | - | - |
| 1777709927 | 17.78° C | 51% | 1011.7 hPa | 0 mm | - | - | - |
| 1777709568 | 17.78° C | 52% | 1011.7 hPa | 0 mm | - | - | - |
| 1777709387 | 17.22° C | 52% | 1011.7 hPa | 0 mm | - | - | - |
| 1777709207 | 17.22° C | 52% | 1011.7 hPa | 0 mm | - | - | - |
| 1777709030 | 17.22° C | 53% | 1011.7 hPa | 0 mm | - | - | - |
| 1777708848 | 17.22° C | 52% | 1011.7 hPa | 0 mm | - | - | - |
| 1777708667 | 17.22° C | 52% | 1011.7 hPa | 0 mm | - | - | - |
| 1777708308 | 16.67° C | 51% | 1011.7 hPa | 0 mm | - | - | - |
| 1777708127 | 16.11° C | 52% | 1011.7 hPa | 0 mm | - | - | - |
| 1777707947 | 16.67° C | 54% | 1011.7 hPa | 0 mm | - | - | - |
| 1777707587 | 16.67° C | 55% | 1011.7 hPa | 0 mm | - | - | - |
| 1777707408 | 17.22° C | 53% | 1011.7 hPa | 0 mm | - | - | - |
| 1777707227 | 16.67° C | 55% | 1011.7 hPa | 0 mm | - | - | - |
| 1777707048 | 16.67° C | 56% | 1011.7 hPa | 0 mm | - | - | - |
| 1777706867 | 16.11° C | 54% | 1011.7 hPa | 0 mm | - | - | - |
| 1777706507 | 16.67° C | 54% | 1011.9 hPa | 0 mm | - | - | - |
| 1777706327 | 15.56° C | 54% | 1011.7 hPa | 0 mm | - | - | - |
| 1777706148 | 16.11° C | 53% | 1011.9 hPa | 0 mm | - | - | - |
| 1777705967 | 16.11° C | 53% | 1011.7 hPa | 0 mm | - | - | - |
| 1777705787 | 16.11° C | 56% | 1011.7 hPa | 0 mm | - | - | - |
| 1777705428 | 16.11° C | 58% | 1011.9 hPa | 0 mm | - | - | - |
| 1777705247 | 16.11° C | 58% | 1011.9 hPa | 0 mm | - | - | - |
| 1777705067 | 15.56° C | 59% | 1011.9 hPa | 0 mm | - | - | - |
* Rain latest hour (hover to see other rain measurements)
** Current wind speed in m/s (hover to see current wind gust speed)